GW0615 Weather Reports


time (UTC)temp
F
wind
direction
speed
knots
gust
knots
rain 1hr
in
rain 24hr
in
rain mn
in
humidity
%
barometer
mb
20260507160256 58 90 15.6 23.5 0.00 0.00 0.00 30 1011.4
20260507155747 58 90 13.9 23.5 0.00 0.00 0.00 32 1011.2
20260507155236 58 68 15.6 23.5 0.00 0.00 0.00 32 1011.6
20260507154726 58 90 14.8 21.7 0.00 0.00 0.00 32 1011.5
20260507154216 58 90 15.6 25.2 0.00 0.00 0.00 33 1011.6
20260507153706 57 68 16.5 25.2 0.00 0.00 0.00 33 1011.2
20260507152136 56 90 20.0 29.5 0.00 0.00 0.00 34 1011.5
20260507151626 56 90 21.7 29.5 0.00 0.00 0.00 34 1011.2
20260507150606 55 90 20.0 27.8 0.00 0.00 0.00 35 1011.2
20260507150055 56 90 17.4 26.9 0.00 0.00 0.00 37 1011.1
20260507145034 55 90 20.0 27.8 0.00 0.00 0.00 37 1011.4
20260507144524 55 90 16.5 29.5 0.00 0.00 0.00 37 1011.4
20260507144014 54 90 20.0 29.5 0.00 0.00 0.00 37 1010.9
20260507143504 55 90 17.4 29.5 0.00 0.00 0.00 37 1011.0
20260507142445 55 90 18.2 34.8 0.00 0.00 0.00 36 1011.1
20260507141934 55 90 19.1 34.8 0.00 0.00 0.00 38 1011.2
20260507141425 55 90 22.6 31.3 0.00 0.00 0.00 38 1010.9
20260507140409 54 90 21.7 31.3 0.00 0.00 0.00 40 1010.8
20260507135857 54 113 18.2 31.3 0.00 0.00 0.00 41 1010.6
20260507135354 53 68 22.6 31.3 0.00 0.00 0.00 42 1010.7
20260507134834 52 90 15.6 26.1 0.00 0.00 0.00 44 1011.0
20260507134323 52 90 12.2 26.1 0.00 0.00 0.00 46 1011.2
20260507133814 51 90 14.8 23.5 0.00 0.00 0.00 47 1011.2
20260507133303 51 113 16.5 23.5 0.00 0.00 0.00 47 1011.2
20260507132242 51 90 16.5 27.8 0.00 0.00 0.00 47 1011.0
20260507131732 51 90 19.1 27.8 0.00 0.00 0.00 48 1011.1
20260507131222 50 90 18.2 23.5 0.00 0.00 0.00 49 1010.9
20260507130713 50 90 17.4 25.2 0.00 0.00 0.00 49 1011.0
20260507130203 50 90 14.8 25.2 0.00 0.00 0.00 49 1011.1
20260507125653 50 90 18.2 23.5 0.00 0.00 0.00 50 1011.2
20260507125142 50 90 13.9 23.5 0.00 0.00 0.00 50 1011.7
20260507124632 50 90 13.0 21.7 0.00 0.00 0.00 50 1011.7
20260507123612 49 90 15.6 21.7 0.00 0.00 0.00 51 1011.6
20260507123102 49 113 13.9 21.7 0.00 0.00 0.00 51 1011.6
20260507122044 49 90 13.0 20.9 0.00 0.00 0.00 50 1010.9
20260507121022 49 68 13.0 17.4 0.00 0.00 0.00 51 1011.1
20260507120001 49 68 13.0 20.9 0.00 0.00 0.00 51 1010.9
20260507115451 49 90 13.0 20.9 0.00 0.00 0.00 50 1010.8
20260507114942 49 68 10.4 20.9 0.00 0.00 0.00 50 1010.4
20260507114431 49 68 11.3 18.2 0.00 0.00 0.00 51 1010.6
20260507113921 49 90 11.3 18.2 0.00 0.00 0.00 51 1010.1
20260507113411 49 68 13.0 19.1 0.00 0.00 0.00 51 1010.1
20260507112900 49 68 13.0 20.0 0.00 0.00 0.00 51 1009.7
20260507112351 50 90 15.6 25.2 0.00 0.00 0.00 50 1009.5
20260507111840 50 90 15.6 25.2 0.00 0.00 0.00 49 1009.5
20260507111330 50 68 17.4 21.7 0.00 0.00 0.00 49 1009.2
20260507110821 50 68 14.8 20.9 0.00 0.00 0.00 51 1009.1
20260507110310 50 68 11.3 20.9 0.00 0.00 0.00 52 1009.5
20260507105800 51 113 14.8 20.9 0.00 0.00 0.00 50 1009.7
20260507105249 51 90 14.8 21.7 0.00 0.00 0.00 50 1009.7
20260507104739 51 90 14.8 21.7 0.00 0.00 0.00 50 1009.4
20260507104230 52 90 16.5 23.5 0.00 0.00 0.00 49 1008.7
20260507103719 52 90 14.8 23.5 0.00 0.00 0.00 51 1009.0
20260507103209 52 90 13.0 21.7 0.00 0.00 0.00 52 1009.4
20260507102659 52 90 15.6 21.7 0.00 0.00 0.00 51 1009.5
20260507102149 53 90 16.5 20.9 0.00 0.00 0.00 51 1010.0
20260507101640 53 90 12.2 20.0 0.00 0.00 0.00 53 1009.4
20260507101129 53 90 11.3 20.0 0.00 0.00 0.00 52 1009.6
20260507100620 53 90 13.9 19.1 0.00 0.00 0.00 52 1010.0
20260507100108 53 90 12.2 19.1 0.00 0.00 0.00 51 1010.0
20260507095558 53 90 12.2 19.1 0.00 0.00 0.00 52 1009.8
20260507095048 53 90 11.3 18.2 0.00 0.00 0.00 52 1009.8
20260507094535 54 90 13.0 20.0 0.00 0.00 0.00 52 1010.3
20260507094028 54 90 12.2 20.0 0.00 0.00 0.00 52 1010.0
20260507093518 54 90 14.8 20.0 0.00 0.00 0.00 51 1010.4
20260507093008 54 90 8.7 17.4 0.00 0.00 0.00 52 1009.4
20260507092457 54 90 10.4 15.6 0.00 0.00 0.00 52 1009.6
20260507091948 54 90 8.7 13.0 0.00 0.00 0.00 52 1009.6
20260507091438 55 90 9.6 14.8 0.00 0.00 0.00 51 1009.6
20260507090927 55 90 9.6 17.4 0.00 0.00 0.00 50 1009.4
20260507090417 55 90 9.6 19.1 0.00 0.00 0.00 50 1009.1
20260507085907 55 90 8.7 19.1 0.00 0.00 0.00 50 1008.8
20260507085357 55 90 10.4 19.1 0.00 0.00 0.00 49 1008.8
20260507084846 55 90 11.3 19.1 0.00 0.00 0.00 49 1009.4
20260507084338 55 90 9.6 17.4 0.00 0.00 0.00 50 1009.0
20260507083826 55 90 9.6 17.4 0.00 0.00 0.00 50 1009.1
20260507083316 55 90 12.2 15.6 0.00 0.00 0.00 49 1008.9
20260507082806 55 90 9.6 14.8 0.00 0.00 0.00 52 1009.1
20260507082256 55 90 9.6 12.2 0.00 0.00 0.00 52 1009.0
20260507081747 55 90 6.1 11.3 0.00 0.00 0.00 54 1009.0
20260507081236 55 90 7.0 12.2 0.00 0.00 0.00 53 1008.6
20260507080726 55 90 8.7 12.2 0.00 0.00 0.00 53 1008.7
20260507080216 55 90 7.0 15.6 0.00 0.00 0.00 54 1009.0
20260507075707 55 90 10.4 18.2 0.00 0.00 0.00 53 1009.0
20260507075155 55 68 12.2 20.0 0.00 0.00 0.00 52 1008.9
20260507074646 55 90 10.4 20.0 0.00 0.00 0.00 55 1008.8
20260507074136 56 90 13.9 19.1 0.00 0.00 0.00 55 1009.3
20260507073626 56 90 12.2 19.1 0.00 0.00 0.00 54 1009.4
20260507073115 56 90 9.6 19.1 0.00 0.00 0.00 57 1009.1
20260507072606 56 68 11.3 14.8 0.00 0.00 0.00 58 1009.2
20260507072055 56 68 10.4 17.4 0.00 0.00 0.00 59 1009.4
20260507071545 56 68 10.4 17.4 0.00 0.00 0.00 60 1009.3
20260507070524 56 68 13.0 20.0 0.00 0.00 0.00 61 1009.3
20260507070015 56 68 12.2 20.0 0.00 0.00 0.00 62 1009.1
20260507065504 56 68 10.4 20.0 0.00 0.00 0.00 61 1009.0
20260507064954 56 68 12.2 18.2 0.00 0.00 0.00 61 1009.4
20260507064444 57 68 12.2 19.1 0.00 0.00 0.00 61 1009.3
20260507063935 57 68 13.0 19.1 0.00 0.00 0.00 61 1009.3
20260507063426 57 68 13.0 18.2 0.00 0.00 0.00 61 1009.8
20260507062914 57 90 13.0 18.2 0.00 0.00 0.00 61 1009.8
20260507062406 57 45 10.4 15.6 0.00 0.00 0.00 62 1009.6
20260507061344 58 68 13.0 17.4 0.00 0.00 0.00 61 1009.7
20260507060833 58 68 11.3 17.4 0.00 0.00 0.00 62 1009.8
20260507060323 58 90 11.3 17.4 0.00 0.00 0.00 61 1009.7
20260507055813 58 68 12.2 17.4 0.00 0.00 0.00 61 1010.0
20260507055305 58 90 9.6 14.8 0.00 0.00 0.00 62 1009.6
20260507054753 58 90 13.0 17.4 0.00 0.00 0.00 62 1009.7
20260507054243 58 68 11.3 17.4 0.00 0.00 0.00 62 1009.3
20260507053734 58 90 10.4 14.8 0.00 0.00 0.00 63 1009.4
20260507052713 58 68 8.7 20.9 0.00 0.00 0.00 64 1009.5
20260507052203 59 68 10.4 20.9 0.00 0.00 0.00 64 1009.4
20260507051653 59 90 9.6 14.8 0.00 0.00 0.00 67 1009.4
20260507051143 59 90 10.4 14.8 0.00 0.00 0.00 65 1009.3
20260507050632 59 90 13.0 17.4 0.00 0.00 0.00 65 1008.9
20260507050122 59 90 10.4 17.4 0.00 0.00 0.00 66 1008.8
20260507045612 59 90 9.6 17.4 0.00 0.00 0.00 68 1008.7
20260507045102 59 90 7.0 17.4 0.00 0.00 0.00 72 1008.9
20260507044552 59 90 7.0 14.8 0.00 0.00 0.00 74 1009.0
20260507044042 59 90 9.6 13.0 0.00 0.00 0.00 75 1009.1
20260507043532 59 90 8.7 13.0 0.00 0.00 0.00 75 1009.0
20260507043021 59 90 8.7 11.3 0.00 0.00 0.00 76 1008.8
20260507042001 59 90 5.2 9.6 0.00 0.00 0.00 76 1008.8
20260507041451 59 90 6.1 9.6 0.00 0.00 0.00 76 1008.9
20260507040941 60 90 4.3 9.6 0.00 0.00 0.00 75 1008.8
20260507040431 60 90 5.2 11.3 0.00 0.00 0.00 75 1008.7
20260507035921 60 90 5.2 11.3 0.00 0.00 0.00 75 1008.6
20260507035411 60 90 3.5 11.3 0.00 0.00 0.00 75 1008.6
20260507034350 60 90 6.1 13.0 0.00 0.00 0.00 74 1008.3
20260507033841 61 90 7.8 13.9 0.00 0.00 0.00 74 1008.2
20260507033330 61 90 9.6 14.8 0.00 0.00 0.00 74 1008.1
20260507032820 61 90 9.6 14.8 0.00 0.00 0.00 74 1007.9
20260507032310 61 90 8.7 14.8 0.00 0.00 0.00 75 1007.9
20260507031759 61 90 9.6 13.9 0.00 0.00 0.00 75 1007.5
20260507031250 61 90 9.6 14.8 0.00 0.00 0.00 74 1007.7
20260507030740 62 90 11.3 14.8 0.00 0.00 0.00 73 1007.7
20260507030229 62 90 7.0 12.2 0.00 0.00 0.00 74 1007.9
20260507025720 62 90 7.8 12.2 0.00 0.00 0.00 73 1007.5
20260507025211 62 90 8.7 12.2 0.00 0.00 0.00 72 1007.0
20260507024659 62 90 9.6 13.0 0.00 0.00 0.00 71 1007.4
20260507024150 63 90 7.0 13.0 0.00 0.00 0.00 71 1007.5
20260507023128 63 90 7.8 12.2 0.00 0.00 0.00 71 1007.5
20260507022619 63 90 7.8 12.2 0.00 0.00 0.00 71 1007.7
20260507022108 64 90 7.0 12.2 0.00 0.00 0.00 72 1007.6
20260507021558 64 90 7.0 13.0 0.00 0.00 0.00 71 1008.0
20260507021048 64 68 7.0 13.0 0.00 0.00 0.00 72 1007.9
20260507020544 65 68 9.6 12.2 0.00 0.00 0.00 72 1007.4
20260507020028 65 68 5.2 14.8 0.00 0.00 0.00 72 1007.7
20260507015518 65 68 8.7 17.4 0.00 0.00 0.00 71 1007.5
20260507015008 65 90 7.8 19.1 0.00 0.00 0.00 71 1007.5
20260507014457 66 90 11.3 19.1 0.00 0.00 0.00 71 1007.5
20260507013948 66 90 12.2 19.1 0.00 0.00 0.00 73 1006.5
20260507012927 66 158 6.1 13.0 0.00 0.00 0.00 77 1006.9
20260507012417 66 158 3.5 7.8 0.00 0.00 0.00 79 1006.6
20260507011907 66 158 3.5 9.6 0.00 0.00 0.00 79 1006.4
20260507010848 66 158 7.8 11.3 0.00 0.00 0.00 78 1006.3
20260507004256 67 158 4.3 7.0 0.00 0.00 0.00 78 1006.7
20260507003746 66 158 2.6 7.0 0.00 0.00 0.00 79 1006.6
20260507003236 66 158 5.2 7.8 0.00 0.00 0.00 79 1006.7
20260507002726 66 158 5.2 7.8 0.00 0.00 0.00 79 1006.7
20260507001706 67 158 5.2 9.6 0.00 0.00 0.00 78 1006.6
20260507001156 67 158 7.0 7.8 0.00 0.00 0.00 79 1006.5
20260506235628 66 158 4.3 7.0 0.00 0.00 0.00 81 1006.8
20260506234605 66 158 4.3 7.0 0.00 0.00 0.00 82 1006.4
20260506234056 67 158 3.5 7.0 0.00 0.00 0.00 81 1006.5
20260506233544 67 158 5.2 7.0 0.00 0.00 0.00 81 1006.2
20260506233035 67 158 3.5 7.0 0.00 0.00 0.00 81 1006.2
20260506232525 67 158 3.5 7.0 0.00 0.00 0.00 80 1006.0
20260506232014 67 158 4.3 9.6 0.00 0.00 0.00 80 1005.8
20260506231505 68 158 5.2 12.2 0.00 0.00 0.00 80 1005.9
20260506230957 68 158 6.1 12.2 0.00 0.00 0.00 79 1005.9
20260506230445 68 180 7.0 9.6 0.00 0.00 0.00 78 1005.6
20260506225936 68 180 6.1 9.6 0.00 0.00 0.00 78 1005.3
20260506225425 68 180 5.2 11.3 0.00 0.00 0.00 78 1005.5
20260506224914 68 180 7.0 11.3 0.00 0.00 0.00 79 1005.4
20260506224404 66 225 0.0 0.0 0.00 0.00 0.00 81 1005.3
20260506222834 67 225 0.0 0.0 0.00 0.00 0.00 80 1004.5
20260506222323 67 225 0.0 0.0 0.00 0.00 0.00 80 1004.3
20260506221813 68 225 0.0 0.0 0.00 0.00 0.00 79 1004.0
20260506221303 67 225 0.0 0.0 0.00 0.00 0.00 81 1004.0
20260506220753 68 225 0.0 0.0 0.00 0.00 0.00 80 1003.9
20260506220243 69 225 0.0 6.1 0.00 0.00 0.00 81 1003.9
20260506215732 68 225 0.0 6.1 0.00 0.00 0.00 82 1004.1
20260506214712 66 225 0.0 3.5 0.00 0.00 0.00 82 1003.9
20260506213652 66 225 1.7 3.5 0.00 0.00 0.00 83 1003.4
20260506213142 67 225 2.6 3.5 0.00 0.00 0.00 82 1003.5
20260506212122 71 225 0.0 3.5 0.00 0.00 0.00 76 1003.2
20260506211611 72 225 0.0 0.0 0.00 0.00 0.00 75 1003.3
20260506211102 73 225 0.0 0.0 0.00 0.00 0.00 72 1003.5
20260506210552 75 225 0.0 0.0 0.00 0.00 0.00 70 1003.6
20260506205531 77 225 0.0 1.7 0.00 0.00 0.00 68 1003.0
20260506205021 78 225 0.0 1.7 0.00 0.00 0.00 66 1003.1
20260506204513 77 225 0.0 5.2 0.00 0.00 0.00 66 1003.0
20260506204001 77 225 0.0 7.0 0.00 0.00 0.00 67 1003.0
20260506203451 77 225 3.5 7.8 0.00 0.00 0.00 67 1002.9
20260506202942 77 225 6.1 7.8 0.00 0.00 0.00 67 1002.6
20260506202430 78 225 5.2 9.6 0.00 0.00 0.00 66 1002.5
20260506201410 78 225 7.0 11.3 0.00 0.00 0.00 65 1002.7
20260506200901 78 248 7.0 9.6 0.00 0.00 0.00 65 1002.6
20260506200350 78 248 5.2 9.6 0.00 0.00 0.00 64 1002.6
20260506195331 78 225 7.0 12.2 0.00 0.00 0.00 65 1002.4
20260506194820 77 248 7.0 12.2 0.00 0.00 0.00 66 1002.7
20260506194310 78 248 5.2 11.3 0.00 0.00 0.00 65 1002.7
20260506193251 78 225 7.0 13.0 0.00 0.00 0.00 65 1002.7
20260506192742 77 225 8.7 13.0 0.00 0.00 0.00 66 1002.4
20260506192230 77 248 8.7 12.2 0.00 0.00 0.00 64 1002.6
20260506191722 78 248 7.8 12.2 0.00 0.00 0.00 64 1002.9
20260506190659 77 248 8.7 12.2 0.00 0.00 0.00 65 1002.5
20260506190148 77 270 8.7 12.2 0.00 0.00 0.00 65 1002.9
20260506185639 77 248 7.0 12.2 0.00 0.00 0.00 65 1002.7
20260506185129 78 248 7.0 12.2 0.00 0.00 0.00 64 1002.7
20260506184618 76 248 7.0 12.2 0.00 0.00 0.00 66 1002.6
20260506184108 77 270 7.0 11.3 0.00 0.00 0.00 65 1002.7
20260506183559 77 248 7.0 13.9 0.00 0.00 0.00 66 1002.7
20260506183058 77 248 7.0 13.9 0.00 0.00 0.00 64 1002.6
20260506182538 76 248 5.2 11.3 0.00 0.00 0.00 66 1003.1
20260506182029 77 248 6.1 9.6 0.00 0.00 0.00 64 1003.1
20260506181518 76 270 4.3 9.6 0.00 0.00 0.00 66 1003.1
20260506181008 77 270 5.2 14.8 0.00 0.00 0.00 65 1003.1
20260506175948 78 248 7.8 11.3 0.00 0.00 0.00 63 1003.2
20260506174928 77 270 0.0 9.6 0.00 0.00 0.00 63 1003.5
20260506174417 75 270 2.6 9.6 0.00 0.00 0.00 65 1003.6
20260506173907 76 248 0.0 7.8 0.00 0.00 0.00 65 1003.7
20260506173357 75 248 5.2 9.6 0.00 0.00 0.00 66 1003.9
20260506172848 76 248 4.3 9.6 0.00 0.00 0.00 63 1004.3
20260506172336 76 248 0.9 7.8 0.00 0.00 0.00 66 1004.4
20260506171827 75 248 0.0 7.8 0.00 0.00 0.00 66 1004.3
20260506170806 75 248 3.5 11.3 0.00 0.00 0.00 67 1004.7
20260506170256 75 248 6.1 11.3 0.00 0.00 0.00 66 1004.8
20260506165746 74 248 6.1 9.6 0.00 0.00 0.00 68 1005.0
20260506165236 74 248 6.1 11.3 0.00 0.00 0.00 70 1005.1
20260506164726 74 248 7.0 13.9 0.00 0.00 0.00 69 1005.3
20260506163705 74 248 9.6 13.9 0.00 0.00 0.00 70 1005.0
20260506163155 74 248 7.0 13.0 0.00 0.00 0.00 69 1005.3
20260506162645 73 225 9.6 13.9 0.00 0.00 0.00 72 1005.3
20260506162135 73 225 7.0 13.9 0.00 0.00 0.00 71 1005.3
20260506161625 72 248 8.7 12.2 0.00 0.00 0.00 72 1005.5
20260506160605 73 248 7.8 13.0 0.00 0.00 0.00 72 1005.8